Theta_e
275 276 275 274 276 278 279 278 277 270 269 271 276 278 270 270 278 276 277 278 276 277 277 275 275 275 275 274 275 275 275 276 276 276 276 276 276 276 276 276 276 275 275 279
269 269 274 275 275 274 276 276 276 274 277 279 282 279 277 275 275 277 278 275 277 276 276 276 276 275 276 275 274 274 273 273 273 274 274 274 274 274 275 275 274 274 276 278
267 269 269 266 265 270 274 274 273 273 274 277 277 280 277 279 276 276 278 275 275 275 275 275 276 277 275 275 274 274 274 274 274 274 274 273 274 274 273 273 273 272 272 276
270 266 262 269 270 273 274 274 274 274 274 273 275 279 280 279 279 273 271 272 275 276 276 276 276 275 276 275 275 274 274 275 275 275 275 275 275 274 274 275 274 274 274 274
264 263 271 272 271 271 271 272 274 273 273 272 272 278 276 274 276 280 273 273 278 275 272 274 275 276 275 274 275 274 274 274 274 274 273 273 273 273 273 274 274 275 278 278
270 267 265 270 274 275 275 269 272 270 272 270 275 274 274 275 274 274 277 278 276 275 273 273 273 276 275 275 275 274 274 274 274 274 273 272 273 273 274 274 275 276 276 276
270 269 267 273 276 278 269 268 273 271 270 272 272 273 273 274 273 274 274 274 275 274 273 272 273 275 274 274 273 274 273 273 273 273 272 273 273 273 273 273 274 272 273 274
271 267 264 276 276 272 274 275 272 273 270 270 273 275 271 271 273 274 273 274 274 273 273 274 275 275 273 272 272 272 272 271 271 270 272 273 271 271 271 271 271 271 271 273
272 272 277 277 275 277 276 274 274 275 274 273 274 273 273 272 273 274 274 274 274 273 272 273 274 274 272 271 271 269 269 269 269 269 271 272 268 269 269 270 271 271 273 273
274 276 276 275 276 275 275 275 276 276 276 276 275 274 272 273 273 273 274 273 273 272 271 270 271 272 271 270 269 268 268 268 268 268 269 269 272 271 270 269 269 271 271 271
275 275 276 276 274 274 275 275 274 274 274 274 275 274 273 273 272 272 272 272 272 271 271 270 270 269 269 269 267 268 268 268 268 269 268 268 269 269 270 270 270 267 267 267
269 272 272 274 275 274 273 273 273 273 273 274 274 274 274 273 272 272 271 270 269 269 269 269 268 268 268 268 267 267 267 268 268 267 266 267 266 266 272 274 276 277 277 273
271 271 272 274 275 272 271 272 273 272 271 271 272 271 271 271 271 270 268 267 267 267 267 266 266 265 265 266 265 265 265 266 266 266 265 264 263 263 262 266 272 274 276 277
270 270 271 271 268 269 269 269 268 267 267 267 267 267 266 266 266 265 265 265 264 263 263 263 263 265 266 265 264 262 262 263 261 260 260 259 259 259 258 258 259 262 268 271
269 269 269 269 268 267 267 268 267 268 267 266 264 264 265 264 263 264 262 262 262 261 262 262 264 267 267 264 264 263 262 261 261 258 256 258 258 258 258 258 259 261 260 265
266 265 265 264 264 264 264 264 264 266 265 264 263 262 261 260 261 260 261 260 262 263 263 264 267 266 265 262 263 262 262 263 260 259 258 256 258 258 259 260 261 261 262 263
263 263 261 260 259 260 259 257 257 258 258 258 258 258 258 258 257 258 260 259 260 262 262 264 267 264 264 264 263 263 262 261 261 257 258 258 259 259 259 259 260 261 262 262
257 257 255 256 255 253 256 254 252 251 253 254 254 252 254 254 254 257 257 258 258 259 259 260 259 260 259 258 257 259 259 259 255 255 255 255 256 257 257 257 259 259 261 259
251 255 254 257 254 253 252 253 251 250 251 249 250 254 250 249 249 251 253 251 254 253 260 253 262 255 254 253 254 250 251 251 251 251 253 254 255 256 258 258 259 260 260 260
252 249 248 250 249 249 252 251 248 250 251 247 247 250 253 252 249 249 248 252 256 261 251 252 251 251 251 251 258 250 252 254 254 254 254 254 256 258 259 258 259 259 258 258
252 249 250 249 250 249 249 248 247 252 254 247 248 252 252 253 252 248 251 256 256 250 251 252 250 255 254 255 254 252 252 254 255 256 254 256 256 257 258 258 259 259 259 259
249 250 251 249 248 252 251 247 246 248 251 251 249 248 247 253 252 252 253 256 256 253 253 255 256 256 256 257 254 254 254 254 255 256 255 256 256 257 258 258 258 258 258 258
248 248 249 249 251 253 251 249 248 247 251 251 252 253 251 255 255 251 256 254 251 253 256 258 257 258 259 257 256 255 254 254 255 256 256 256 257 257 258 258 258 258 258 258
248 248 249 248 244 248 253 252 249 252 249 251 252 252 250 253 256 255 257 257 256 256 257 258 259 263 262 260 258 257 256 256 256 256 257 257 257 258 258 258 258 258 258 258
249 249 247 249 251 253 249 249 251 251 251 253 253 253 252 252 253 257 256 258 259 259 258 259 262 262 260 259 258 258 258 258 257 257 257 258 258 258 258 259 259 259 259 259
250 252 251 249 252 252 251 249 251 254 252 254 256 256 255 255 255 256 257 258 258 258 258 258 259 259 259 258 258 258 258 259 259 259 259 259 259 259 259 260 260 260 260 261
249 250 249 253 250 249 247 249 248 253 252 250 253 257 257 258 259 259 259 259 259 259 260 260 260 260 260 260 260 260 260 260 260 260 260 260 260 260 260 261 261 261 261 261
Wind_Speed
5 6 3 3 3 3 8 9 6 5 5 5 4 4 6 5 2 5 6 8 5 6 7 9 9 9 7 6 6 4 5 4 4 3 3 3 4 4 4 4 5 4 4 4
5 2 1 1 5 6 4 4 6 6 10 8 3 1 4 7 6 8 8 6 7 7 7 8 10 7 9 7 5 5 4 4 4 4 4 4 3 3 4 4 4 4 5 6
5 4 3 5 5 5 3 7 5 6 6 12 8 5 2 4 4 6 8 10 10 9 7 7 9 10 8 8 5 5 4 4 4 3 3 4 4 5 4 4 3 5 5 5
3 4 4 5 2 2 5 3 5 4 8 9 9 10 7 5 3 5 5 5 7 9 8 7 5 8 8 9 7 5 5 5 4 4 3 2 3 4 4 4 5 5 5 6
2 1 3 3 6 3 4 3 6 9 11 8 9 7 4 9 8 6 6 3 5 7 6 7 7 7 8 7 7 6 5 5 4 4 4 4 4 3 2 2 3 4 5 6
1 2 2 1 5 4 2 2 5 2 11 9 12 4 3 11 9 8 6 6 8 9 9 8 5 7 7 7 7 7 6 5 4 4 3 3 2 1 2 2 3 2 4 4
4 3 2 3 11 2 2 5 10 6 6 7 5 3 6 8 7 6 6 8 10 9 9 6 4 5 5 5 4 4 4 4 3 3 2 2 2 2 3 2 2 2 3 4
2 4 2 14 1 5 3 4 4 5 4 4 5 5 4 5 5 6 7 8 7 8 8 6 4 5 5 5 5 4 4 3 3 2 3 3 4 3 2 3 3 3 2 3
4 3 3 3 6 4 2 3 5 5 5 4 6 3 3 1 3 5 5 4 4 5 6 4 3 4 5 4 3 3 3 4 4 3 3 3 3 3 2 2 3 2 1 1
2 3 2 4 1 5 4 5 8 7 5 5 5 3 1 1 2 3 3 3 3 5 5 3 2 3 4 5 4 4 4 4 3 3 3 2 2 2 2 2 1 1 1 1
2 2 1 4 9 9 8 6 9 8 5 6 6 3 1 1 2 3 3 2 2 3 4 4 3 3 3 4 4 3 2 2 2 2 2 2 2 2 2 2 3 3 3 3
2 3 3 6 10 11 10 10 9 8 9 9 7 6 3 2 1 2 3 3 2 2 3 2 2 3 3 3 3 3 2 2 2 2 2 2 2 2 4 6 7 10 11 7
4 6 4 8 2 12 9 10 8 7 7 8 7 6 4 1 2 3 2 4 3 3 3 4 3 3 2 2 3 4 4 3 2 2 2 1 1 0 2 4 6 8 9 11
4 6 1 7 6 9 7 7 4 3 3 4 5 4 3 3 3 3 2 1 1 2 2 3 3 5 4 4 4 3 3 4 2 2 2 1 2 3 2 2 3 4 5 6
6 4 3 3 4 6 5 6 6 6 5 5 5 4 6 6 3 3 3 2 2 1 3 3 4 5 3 5 6 5 4 3 3 2 2 3 2 2 2 3 4 5 3 7
6 2 5 3 5 6 6 8 6 8 7 6 6 5 4 2 2 2 3 1 0 3 4 4 4 4 3 5 5 3 4 6 5 3 3 3 3 4 4 5 5 5 5 6
3 3 5 4 5 6 4 3 2 3 4 5 6 7 6 6 2 4 5 4 4 6 5 3 7 3 4 4 5 4 3 3 5 2 4 4 3 4 4 3 5 6 7 4
3 2 3 4 5 4 5 4 4 5 3 7 6 5 5 5 4 7 6 6 5 6 6 6 5 3 3 3 4 3 3 3 3 4 3 4 4 4 4 5 6 7 7 5
2 2 3 3 4 4 5 5 4 5 6 5 5 5 5 5 5 5 6 5 6 5 6 3 5 3 3 4 3 2 3 3 3 3 4 4 4 4 6 6 7 8 7 6
2 2 3 4 3 3 4 5 5 6 5 4 5 4 5 5 4 5 4 6 7 7 3 5 3 3 4 5 5 2 3 5 5 4 4 4 5 7 6 8 8 8 6 6
4 3 3 2 4 5 6 4 3 6 7 4 4 6 6 8 7 4 5 6 6 3 4 5 4 5 4 5 4 4 5 5 6 6 5 6 6 7 7 7 7 7 7 6
3 3 4 4 4 6 5 5 5 5 6 6 5 5 5 8 6 6 7 10 5 5 4 5 5 7 6 7 4 5 5 6 6 5 6 6 7 7 7 7 7 7 7 7
4 4 4 5 5 5 7 4 4 5 7 6 7 7 4 6 5 3 8 5 4 6 6 7 8 11 12 6 6 6 6 7 7 7 7 7 8 8 8 8 7 7 7 7
3 4 5 3 3 3 5 4 5 6 5 7 7 7 4 5 7 6 8 10 11 12 10 10 11 14 13 7 7 7 7 8 8 8 8 9 8 8 8 8 8 7 7 8
4 4 2 3 4 4 5 4 6 5 6 7 7 7 7 5 7 7 7 9 13 12 10 12 15 15 9 7 7 8 8 8 8 7 8 8 8 8 8 8 8 8 7 7
2 3 3 4 4 4 3 3 4 5 4 7 8 6 7 6 7 8 8 11 10 11 10 9 8 8 7 8 9 9 9 8 9 9 9 9 9 8 8 8 8 8 7 7
3 2 3 4 2 2 2 3 3 7 4 5 9 9 8 9 9 10 11 9 9 9 9 8 8 9 8 9 9 9 8 8 10 8 8 8 8 8 8 7 7 6 6 6
Wind_Direction
281 256 243 229 249 268 246 257 248 250 221 276 289 309 286 271 138 117 146 135 124 137 133 124 117 112 104 98 107 97 111 126 140 129 137 152 168 175 180 181 192 184 194 215
287 42 157 248 347 313 300 318 269 242 276 337 353 281 192 225 174 173 171 149 131 131 136 140 132 134 132 124 122 122 136 143 143 148 154 166 159 167 181 182 182 185 200 212
279 332 351 39 328 340 21 30 322 15 347 328 332 290 271 247 226 224 200 163 162 163 157 154 151 144 144 130 127 133 141 152 154 146 154 168 176 176 194 202 184 204 213 215
277 349 34 235 128 321 78 50 14 317 314 313 306 312 15 4 269 233 204 173 157 145 141 134 131 119 128 130 144 147 147 148 149 153 149 148 169 184 181 178 198 205 211 211
105 216 125 34 2 6 355 342 10 340 336 323 311 301 56 6 348 302 194 166 148 125 112 118 121 124 132 134 138 146 154 159 149 148 156 173 192 188 205 197 206 217 216 208
355 96 44 253 314 197 227 350 357 338 344 337 332 18 359 345 346 6 35 104 114 107 103 111 108 126 135 143 148 159 161 152 141 155 160 173 181 177 221 219 214 215 242 235
255 92 355 302 314 176 34 306 328 342 325 339 2 307 316 337 353 26 51 79 97 92 98 97 116 122 131 132 118 111 108 109 117 127 159 174 170 191 219 220 201 226 238 250
15 72 17 342 6 55 311 311 285 319 295 303 294 321 333 344 12 32 54 69 82 107 118 125 124 123 130 139 135 120 111 122 144 164 196 160 168 189 206 185 198 231 242 267
28 59 69 30 71 346 308 284 311 304 312 261 294 304 311 15 37 71 66 77 84 105 112 107 117 134 148 136 120 115 135 169 182 185 192 175 172 193 185 186 204 222 228 259
126 42 101 58 135 23 349 354 332 325 305 323 322 306 334 162 111 94 102 119 121 131 129 122 110 111 120 140 144 162 172 167 185 190 179 197 210 206 203 196 217 218 233 223
51 45 355 123 47 10 351 352 350 339 329 346 334 315 229 176 153 150 142 119 138 145 134 140 134 123 122 138 153 174 178 177 204 191 210 209 227 210 217 222 192 193 220 207
294 54 305 304 0 7 353 353 347 346 346 351 6 349 359 43 104 168 152 100 75 76 110 130 166 175 177 168 175 176 179 189 199 191 209 210 225 282 283 268 259 246 246 217
301 328 283 308 2 11 347 344 342 2 3 344 354 352 6 36 41 62 94 116 141 198 170 159 206 232 216 181 188 210 218 207 204 212 215 229 302 300 309 330 312 281 274 271
2 324 198 35 328 335 336 334 347 342 2 6 345 352 2 22 19 47 49 17 164 185 178 200 217 249 226 192 199 225 238 251 223 223 220 230 224 229 215 228 277 299 302 293
8 357 300 311 336 346 339 347 17 21 351 2 9 14 10 4 358 336 349 23 33 340 285 249 249 259 207 192 204 215 219 230 224 226 224 226 218 219 216 227 244 258 291 292
318 20 12 27 350 357 354 3 13 2 359 345 358 8 330 315 350 332 306 265 357 289 292 264 272 257 209 194 213 217 223 231 210 218 225 228 225 222 224 230 244 251 256 255
90 347 347 5 8 337 343 310 300 299 314 356 333 325 338 338 351 4 332 311 261 268 266 257 267 250 243 219 217 229 221 226 230 218 228 231 229 235 239 227 247 253 256 241
227 255 235 222 262 294 319 320 318 319 331 300 310 326 354 9 310 310 311 323 302 289 260 250 253 242 213 211 207 211 223 233 210 224 220 226 230 226 228 235 247 252 262 250
218 250 285 259 247 246 272 290 295 284 293 302 329 320 294 275 282 290 313 323 309 307 282 319 319 12 316 295 230 207 219 234 239 244 233 243 247 234 240 241 248 248 249 252
298 267 296 278 287 222 279 257 285 304 292 311 302 307 314 289 279 291 293 263 244 250 276 275 292 291 269 267 281 229 230 233 237 238 229 234 241 252 244 238 241 244 236 235
233 248 266 281 282 269 241 258 290 309 318 324 298 285 286 295 295 286 308 309 273 258 258 266 240 258 247 246 239 234 228 229 227 233 227 236 238 242 245 245 243 245 250 245
232 237 258 264 269 281 263 265 245 280 290 295 276 272 291 296 294 286 234 237 279 273 278 279 273 261 258 258 237 238 234 231 237 237 237 236 238 247 247 242 242 244 243 245
231 227 249 248 253 276 308 286 261 262 296 293 295 293 271 277 278 287 303 257 242 264 273 271 265 269 268 257 247 240 240 237 239 236 236 235 236 239 243 243 242 241 243 243
244 234 247 269 300 321 319 289 299 291 266 282 274 265 250 288 291 228 247 270 270 270 267 269 269 271 268 257 244 238 240 239 237 237 238 237 239 241 241 243 244 242 241 243
231 260 267 318 321 279 277 287 309 294 310 306 286 275 256 224 221 277 276 277 277 277 274 269 269 271 265 256 249 248 247 242 237 234 235 236 238 238 239 239 241 243 241 237
225 248 245 236 248 274 286 333 302 302 302 307 299 283 281 262 253 261 268 267 267 269 267 270 265 260 254 249 245 244 243 243 240 236 235 237 237 236 238 237 239 238 239 243
287 282 343 322 293 289 300 285 308 300 286 271 281 292 289 294 289 284 279 279 277 277 276 275 271 267 262 260 258 255 251 248 241 239 236 236 234 235 235 235 236 236 237 238